Location: Asheville, NC
(35.6000°N, 82.5500°W)
Time: 07:08:47
(UTC-05:00)

KAITUO 1B - Pass Details

Date: 13 February 2018
Orbit: 498 x 522 km, 97.5° (Epoch: 19 February)

Event Time Altitude Azimuth Distance (km) Brightness Sun altitude
Rises 18:42:24 0° 192° (SSW) 2,588 ? -7.2°
Reaches altitude 10° 18:44:44 10° 206° (SSW) 1,705 ? -7.7°
Maximum altitude 18:47:49 25° 263° (W) 1,033 ? -8.3°
Drops below altitude 10° 18:50:55 10° 321° (NW) 1,707 ? -8.9°
Sets 18:53:16 0° 335° (NNW) 2,593 ? -9.4°
